Location: Góry Miechowskie
(50.3599°N, 20.1803°E)
Time: 04:21:57
(UTC+00:00)

Vanguard 2 Rocket - Pass Details

Date: 15 September 2024
Orbit: 553 x 3298 km, 32.9° (Epoch: 14 October)

Event Time Altitude Azimuth Distance (km) Brightness Sun altitude
Exits shadow 23:43:32 26° 138° (SE) 3,671 9.7 -35.1°
Drops below altitude 10° 23:53:27 10° 102° (ESE) 5,594 11.0 -34.4°
Sets 23:59:30 0° 93° (E) 6,957 11.7 -34.0°
